星链-2619 (STARLINK-2619 )

导读 | 豆包AI

STARLINK-2619是美国太空探索技术公司SpaceX星链星座的成员,星链旨在构建全球卫星互联网。该卫星于北京时间2021年5月9日发射升空,星链项目通过发射近万颗低轨卫星,能为偏远地区提供互联网接入服务,也具备一定的其他通信能力,不过大规模卫星组网也引发了天文观测等领域的争议。

Basic Information
目录编号:
48475
目录名称:
STARLINK-2619
国际标识:
2021-040AZ
轨道中心:
EARTH
卫星名称:
星链-2619
卫星全名:
星链-2619 (STARLINK-2619 )
卫星状态:
已陨落 最后检测时间 2026-01-23
发射日期:
2021-05-09 UTC
国别 :
美国 (US)
星等 :
--
Orbit Information
数据来源 国际轨道数据
星历时间: 2026-01-23T03:29:26+0800
轨道信息已过期50天
半长轴: 6546.905km
偏心率: 0.0002495
轨道倾角: 53.003°
近地点辐角 204.340°
升交点赤经 296.808°
平近点角 155.752°
近地点: 167.134km
远地点: 170.402km
周期: 87.865分钟
每日圈数: 16.388862
Detailed Information
固有亮度:
5
最大亮度:
2.5
卫星平台:
Starlink V1.0
覆盖范围:
全球
运营商:
太空探索技术公司
运营商所在国:
美国
制造商(研发单位):
太空探索技术公司
制造商所在国:
美国
使用方式:
暂无
Satellite Introduction
星链(Starlink)计划是由太空探索技术公司(SpaceX)提出的一个巨型低轨卫星互联网星座项目,计划在2019年至2024年间在太空搭建由约1.2万颗卫星组成的“星链”网络,其中1584颗将部署在地球上空550千米处的近地轨道,并从2020年开始工作。该卫星仍在工作。